Flag for Liechtenstein Weather past 2 weeks in Vaduz, Liechtenstein

Now
65 °F

Fog.


Feels Like: 65 °F
Forecast: 56 / 79 °F
Wind: 1 mph from Northeast

Location: Vaduz

Current Time: Aug 28, 2014 at 11:49:05 AM

Latest Report: Aug 28, 2014 at 11:00 AM


Visibility: 6 mi

Pressure: 30.07 "Hg

Humidity: 65%

Dew point: 53 °F

Location of VaduzLocation

Historic Weather in Vaduz — Graph

°F

Vaduz temperature yesterday

Maximum temperature yesterday: 67 °F (at 4:00 PM)
Minimum temperature yesterday: 54 °F (at 10:00 PM)
Average temperature yesterday: 60 °F

Past Weeks' High & Low Weather Summary

 TemperatureHumidityPressure
High73 °F (Aug 18, 3:00 PM)98% (Aug 21, 7:00 AM)30.20 "Hg (Aug 21, 7:00 AM)
Low48 °F (Aug 25, 1:00 AM)46% (Aug 22, 4:00 PM)29.79 "Hg (Aug 26, 7:00 AM)
Average60 °F75%29.99 "Hg
* Reported Aug 13 11:00 AM — Aug 28 10:00 AM, Vaduz, Weather by CustomWeather, © 2014

Note: Actual official high and low records may vary slightly from our data, if they occured in-between our weather recording intervals... More about our weather records

Advertising

Vaduz weather history for previous 24 hours

 ConditionsComfort  
Time TempWeatherWind HumidityBarometerVisibility
10:00 AM
Aug 28
63 °FMild.3 mph68%30.08 "HgN/A
9:00 AM59 °FCool.3 mph78%30.09 "HgN/A
8:00 AM58 °FPartly sunny.6 mph75%30.09 "Hg11 mi
7:00 AM58 °FCool.5 mph79%30.08 "HgN/A
6:00 AM56 °FCool.3 mph88%30.08 "HgN/A
5:00 AM57 °FCool.5 mph85%30.08 "HgN/A
4:00 AM58 °FCool.3 mph83%30.08 "HgN/A
3:00 AM57 °FCool.5 mph87%30.08 "HgN/A
2:00 AM54 °FCool.1 mph97%30.09 "HgN/A
1:00 AM54 °FCool.2 mph97%30.09 "HgN/A
12:00 AM54 °FCool.No wind97%30.09 "HgN/A
11:00 PM
Aug 27
54 °FCool.No wind97%30.09 "HgN/A
10:00 PM54 °FCool.No wind97%30.08 "HgN/A
9:00 PM56 °FCool.1 mph97%30.07 "HgN/A
8:00 PM60 °FPartly sunny.3 mph85%30.05 "Hg9 mi
7:00 PM62 °FMild.6 mph76%30.03 "HgN/A
6:00 PM66 °FMild.7 mph72%30.01 "HgN/A
4:00 PM67 °FMild.3 mph75%30.00 "HgN/A
3:00 PM66 °FMild.3 mph73%30.00 "HgN/A
2:00 PM65 °FFog.1 mph76%29.99 "Hg7 mi
1:00 PM64 °FMild.1 mph78%30.00 "HgN/A
12:00 PM61 °FCool.1 mph86%30.01 "HgN/A
11:00 AM60 °FFog.2 mph91%30.01 "Hg6 mi
Weather by CustomWeather, © 2014

See weather overviewHow to use our weather pages